Regional Weather Roundup
Issued by NWS Sterling, VA

Home | Current Version | Previous Version | Graphics & Text | Print | Product List | Glossary On
Versions: 1 2 3 4 5 6 7 8 9 10 11 12 13 14 15 16 17 18 19 20 21 22 23 24 25 26 27 28 29 30 31 32 33 34 35 36 37 38 39 40 41 42 43 44 45 46 47 48 49 50
925
ASUS41 KLWX 161310
RWRLWX

REGIONAL WEATHER ROUNDUP
NATIONAL WEATHER SERVICE BALTIMORE MD/WASHINGTON DC
900 AM EDT WED AUG 16 2017

Note: "FAIR" indicates few or no clouds below 12,000 feet
with no significant weather and/or obstructions to visibility.
 TC=TEMPERATURE CELSIUS

 * =Non NWS site. Station does not report precipitation (e.g. rain,
    snow, etc.), thunder, or fog.

DCZ001-MDZ009-015-VAZ040>042-051-053>054-161400-
WASHINGTON METRO

CITY           SKY/WX    TMP DP  RH WIND       PRES   REMARKS
WASHINGTON NAT PTSUNNY   76  74  93 E5        30.01S FOG
DULLES         PTSUNNY   75  72  90 CALM      30.02R
ANDREWS AFB    PTSUNNY   73  73 100 CALM      30.00S
FT BELVOIR     CLOUDY    72  72 100 CALM      30.01R FOG
QUANTICO       PTSUNNY   76  74  93 CALM      30.01S FOG
COLLEGE PARK*  PTSUNNY   71  71  99 CALM      30.00S
LEESBURG*      SUNNY     77  73  88 CALM      30.03R
MANASSAS*      FOG       72  70  94 CALM      30.02R VSB 1
GAITHERSBURG*  SUNNY     74  70  87 CALM      30.02F

$$

MDZ006>007-011-014-161400-
BALTIMORE METRO

CITY           SKY/WX    TMP DP  RH WIND       PRES   REMARKS
BWI AIRPORT    FOG       72  72 100 W5        30.00R VSB 1/2
MD SCIENCE CTR   N/A     77  73  87 MISG      30.02R
MARTIN STATE   CLOUDY    73  73 100 NW3       30.01R FOG
ANNAPOLIS      CLOUDY    74  74 100 NW5       29.99R FOG
FORT MEADE*    CLOUDY    70  70 100 CALM      30.03S VSB 1/2

$$

MDZ012-015-019>023-161400-
MARYLAND EASTERN SHORE

CITY           SKY/WX    TMP DP  RH WIND       PRES   REMARKS
OCEAN CITY     NOT AVBL
SALISBURY      CLOUDY    75  73  93 N6        29.99R
BAY BRIDGE AP* CLOUDY    75  73  94 NW5       30.00R FOG
CAMBRIDGE*     MOSUNNY   75  72  88 N7        29.99R
EASTON*        MOSUNNY   75  72  88 CALM      30.03R

$$

MDZ017>025-161400-
SOUTHERN MARYLAND

CITY           SKY/WX    TMP DP  RH WIND       PRES   REMARKS
PATUXENT RIVER MOSUNNY   77  75  93 N3        30.00R
ST INIGOES     LGT RAIN  77  74  90 CALM      29.99R
LEONARDTOWN*   MOSUNNY   73  72  94 CALM      30.02R

$$

MDZ003>005-161400-
NORTH CENTRAL MARYLAND

CITY           SKY/WX    TMP DP  RH WIND       PRES   REMARKS
FREDERICK*     SUNNY     72  72 100 CALM      30.04S FOG
HAGERSTOWN APT PTSUNNY   71  70  96 CALM      30.04R FOG
WESTMINSTER*   MOSUNNY   73  72  94 W3        30.03R

$$

MDZ501>502-161400-
WESTERN MARYLAND

CITY           SKY/WX    TMP DP  RH WIND       PRES   REMARKS
OAKLAND*       MOSUNNY   64  63  94 CALM      30.13R
CUMBERLAND*    CLOUDY    70  70 100 CALM      30.10R

$$

VAZ025>031-161400-
SHENANDOAH VALLEY

CITY           SKY/WX    TMP DP  RH WIND       PRES   REMARKS
WINCHESTER*    MOSUNNY   70  70 100 W3        30.05R FOG
FRONT ROYAL*   CLOUDY    70  70 100 S6        30.04R
LURAY*         FOG       70  70 100 CALM      30.06R VSB 1/2
NEW MARKET*    CLOUDY    68  67  96 CALM      30.06S VSB 1/2
STAUNTON*      FOG       69  69 100 CALM      30.10R VSB 1/2
WAYNESBORO*    CLOUDY    69  69 100 CALM      30.10R VSB 1/2

$$

WVZ021-048>050-054>055-161400-
EASTERN WEST VIRGINIA PANHANDLE

CITY           SKY/WX    TMP DP  RH WIND       PRES   REMARKS
MARTINSBURG    FOG       68  68 100 CALM      30.03R VSB<1/4
PETERSBURG*    MOSUNNY   70  70 100 CALM      30.07S FOG

$$

VAZ036>039-050-161400-
CENTRAL FOOTHILLS

CITY           SKY/WX    TMP DP  RH WIND       PRES   REMARKS
CHARLOTTESVILL MOSUNNY   76  73  91 CALM      30.04R
CULPEPER*      SUNNY     74  74  99 CALM      30.03R
ORANGE*        SUNNY     75  73  94 CALM      30.03R
GORDONSVILLE*  SUNNY     76  73  90 CALM      30.02R
WARRENTON*     PTSUNNY   73  69  87 CALM      30.02S

$$

VAZ055>057-161400-
NORTH AND CENTRAL PIEDMONT

CITY           SKY/WX    TMP DP  RH WIND       PRES   REMARKS
FREDERICKSBRG* FOG       72  72 100 CALM      30.01S VSB 1/2
STAFFORD*      FOG       71  71 100 S3        30.05S VSB 1/2

$$

NCZ024-NYZ072-PAZ021-071-VAZ022-071-161400-
OTHER REGIONAL OBSERVATIONS

CITY           SKY/WX    TMP DP  RH WIND       PRES   REMARKS
NEW YORK CITY  SUNNY     73  66  78 CALM      29.99S
PHILADELPHIA   MOSUNNY   75  69  81 NW3       29.99R
PITTSBURGH     PTSUNNY   70  64  81 E3        30.09R
ROANOKE        SUNNY     76  69  79 N3        30.11R
RICHMOND       CLOUDY    75  73  93 NE3       30.01R FOG
RALEIGH        MOSUNNY   79  75  87 NE5       30.03R

$$

ANZ530>537-161400-
MARINE OBSERVATIONS

STATION/POSITION TIME  TEMP    WIND        PRES
                       AIR SEA DIR/SP/G
                 (UTC) (F)     (DEG/KT/KT) (MB)
THOMAS PT LIGHT  1300   72 79  300/  3/  4   N/A
BALT KEY BRIDGE  1248   71     250/  5/  6 1015.6R
COVE POINT       1248   77      20/  5/  7 1016.4R
LEWISETTA        1248   77 81  360/  4/  6 1015.9R
SOLOMONS ISLAND  1242   77 80  360/  3/  4   N/A
PINEY POINT      1248          350/  3/  4   N/A

$$





USA.gov is the U.S. government's official web portal to all federal, state and local government web resources and services.